Barrow, AK

5:27 PM AKDT on April 24, 2018 (GMT -0800)
Wiley Post-Will Rogers Memorial

Weather History for PABR - July, 2013

Change the Weather History Date:

Tuesday, July 30, 2013

  Actual Average Record
Temperature  
Mean Temperature 47 °F 41 °F  
Max Temperature 55 °F 46 °F 72 °F (2009)
Min Temperature 39 °F 35 °F 28 °F (1959)
Degree Days  
Heating Degree Days 18 24  
Month to date heating degree days 606 723  
Since 1 June heating degree days 1384 1604  
Since 1 July heating degree days 606 723  
Cooling Degree Days 0 0  
Month to date cooling degree days 0 0  
Year to date cooling degree days 0 0  
Since 1 June cooling degree days 0 0  
Moisture  
Dew Point 46 °F    
Average Humidity 0    
Maximum Humidity 0    
Minimum Humidity 0    
Precipitation  
Precipitation 0.10 in 0.03 in 0.56 in (1942)
Month to date precipitation 1.67 0.94  
Year to date precipitation 3.66 1.96  
Snow  
Snow 0.00 in 0.00 in 2.00 in (1945)
Month to date snowfall 0.0 0.2  
Since 1 June snowfall 0.3 0.9  
Since 1 July snowfall 0.0 0.2  
Snow Depth 0.00 in    
Sea Level Pressure  
Sea Level Pressure 30.00 in    
Wind  
Wind Speed 12 mph (SW)    
Max Wind Speed 18 mph    
Max Gust Speed 23 mph    
Visibility 4 miles    
Events Fog , Rain    
T = Trace of Precipitation, MM = Missing Value Source: NWS Daily Summary

Daily Weather History Graph

Daily Weather History Graph

Search for Another Location

Airport or City:

Astronomy

Jul. 30, 2013 Rise Set
Actual Time 3:05 AM AKDT 2:01 AM AKDT
Civil Twilight Sun does not set Sun does not set
Nautical Twilight Sun does not set Sun does not set
Astronomical Twilight Sun does not set Sun does not set
Moon 10:30 PM AKDT (7/30) 8:04 PM AKDT (7/30)
Length of Visible Light 24h 00m
Length of Day
22h 55m
Last Quarter, 39% of the Moon is Illuminated
Jul 30
Last Quarter
Aug 6
New
Aug 14
First Quarter
Aug 20
Full
Aug 28
Last Quarter

Hourly Weather History & Observations

Time (AKDT) Temp. Windchill Dew Point Humidity Pressure Visibility Wind Dir Wind Speed Gust Speed Precip Events Conditions
12:53 AM 39.0 °F 33.4 °F 36.0 °F 89% 30.12 in 10.0 mi SE 8.1 mph - N/A   Mostly Cloudy
1:53 AM 41.0 °F 34.7 °F 37.9 °F 89% 30.11 in 10.0 mi SE 10.4 mph - 0.00 in Rain Light Rain
2:53 AM 43.0 °F 37.2 °F 41.0 °F 93% 30.10 in 10.0 mi SSE 10.4 mph - 0.00 in Rain Light Rain
3:53 AM 44.1 °F 38.6 °F 42.1 °F 93% 30.08 in 10.0 mi SSE 10.4 mph - 0.01 in Rain Light Rain
4:53 AM 45.0 °F 39.3 °F 43.0 °F 93% 30.07 in 10.0 mi SSE 11.5 mph - 0.00 in Rain Light Rain
5:02 AM 44.6 °F 38.4 °F 42.8 °F 93% 30.06 in 10.0 mi SSE 12.7 mph - 0.00 in   Overcast
5:40 AM 46.4 °F 40.4 °F 44.6 °F 93% 30.05 in 9.0 mi SSE 13.8 mph - 0.01 in Rain Light Rain
5:53 AM 46.0 °F 40.2 °F 45.0 °F 96% 30.05 in 8.0 mi SSE 12.7 mph - 0.02 in Rain Light Rain
6:42 AM 46.4 °F 40.1 °F 46.4 °F 100% 30.03 in 10.0 mi South 15.0 mph - 0.01 in Rain Light Rain
6:53 AM 46.9 °F - 46.0 °F 97% 30.04 in 10.0 mi South 13.8 mph - 0.02 in Rain Light Rain
7:53 AM 48.9 °F - 46.9 °F 93% 30.02 in 10.0 mi South 10.4 mph - 0.01 in Rain Light Rain
8:53 AM 50.0 °F - 48.0 °F 93% 30.01 in 10.0 mi South 10.4 mph - 0.00 in   Overcast
9:02 AM 50.0 °F - 48.2 °F 94% 30.00 in 8.0 mi South 10.4 mph - N/A   Overcast
9:53 AM 52.0 °F - 50.0 °F 93% 30.00 in 10.0 mi South 13.8 mph - 0.00 in   Overcast
10:13 AM 53.6 °F - 51.8 °F 94% 29.99 in 10.0 mi South 13.8 mph - N/A   Overcast
10:27 AM 53.6 °F - 51.8 °F 94% 29.99 in 10.0 mi SSW 11.5 mph - N/A   Overcast
10:53 AM 55.0 °F - 52.0 °F 89% 29.99 in 10.0 mi SSW 19.6 mph 23.0 mph N/A   Overcast
11:17 AM 53.6 °F - 51.8 °F 94% 29.98 in 10.0 mi SW 16.1 mph 21.9 mph N/A   Overcast
11:22 AM 53.6 °F - 51.8 °F 94% 29.98 in 10.0 mi SW 16.1 mph - N/A   Overcast
11:53 AM 50.0 °F - 48.0 °F 93% 29.99 in 10.0 mi WSW 13.8 mph - N/A   Overcast
12:21 PM 50.0 °F - 48.2 °F 94% 29.98 in 4.0 mi WSW 13.8 mph - 0.00 in Rain Light Rain
12:28 PM 50.0 °F - 48.2 °F 94% 29.98 in 2.5 mi SW 11.5 mph - 0.00 in Rain Light Rain
12:53 PM 50.0 °F - 48.9 °F 96% 29.98 in 2.0 mi SW 12.7 mph - 0.01 in Rain Light Rain
1:00 PM 50.0 °F - 48.2 °F 94% 29.98 in 5.0 mi SW 12.7 mph - 0.00 in Rain Light Rain
1:53 PM 50.0 °F - 48.9 °F 96% 29.98 in 10.0 mi WSW 13.8 mph - 0.00 in Rain Light Rain
2:12 PM 50.0 °F - 48.2 °F 94% 29.97 in 2.0 mi WSW 12.7 mph - 0.00 in Rain Light Rain
2:19 PM 50.0 °F - 48.2 °F 94% 29.97 in 1.0 mi WSW 12.7 mph - 0.00 in Rain Light Rain
2:31 PM 50.0 °F - 48.2 °F 94% 29.97 in 0.8 mi SW 12.7 mph - 0.00 in Rain Light Rain
2:38 PM 50.0 °F - 48.2 °F 94% 29.97 in 0.5 mi SW 13.8 mph - 0.00 in Fog , Rain Light Rain
2:42 PM 50.0 °F - 50.0 °F 100% 29.97 in 1.0 mi WSW 15.0 mph - 0.00 in Rain Light Rain
2:46 PM 50.0 °F - 48.2 °F 94% 29.97 in 3.0 mi WSW 15.0 mph - 0.00 in Rain Light Rain
2:53 PM 50.0 °F - 48.9 °F 96% 29.97 in 7.0 mi WSW 13.8 mph - 0.00 in Rain Light Rain
3:18 PM 48.2 °F - 46.4 °F 93% 29.97 in 1.8 mi WSW 13.8 mph - 0.00 in Rain Light Rain
3:27 PM 46.4 °F 40.4 °F 46.4 °F 100% 29.97 in 0.5 mi WSW 13.8 mph - 0.00 in Fog Fog
3:49 PM 46.4 °F 40.7 °F 46.4 °F 100% 29.97 in 0.2 mi WSW 12.7 mph - 0.00 in Fog , Rain Light Rain
3:53 PM 46.9 °F - 46.0 °F 97% 29.97 in 0.2 mi WSW 13.8 mph - 0.00 in Fog , Rain Light Rain
4:19 PM 46.4 °F 40.7 °F 46.4 °F 100% 29.97 in 0.2 mi WSW 12.7 mph - 0.00 in Fog Fog
4:53 PM 46.0 °F 40.6 °F 45.0 °F 96% 29.98 in 0.2 mi WSW 11.5 mph - 0.00 in Fog Fog
5:53 PM 46.9 °F - 46.0 °F 97% 29.98 in 0.5 mi SW 12.7 mph - 0.01 in Fog Fog
6:18 PM 46.4 °F 40.4 °F 46.4 °F 100% 29.98 in 0.8 mi WSW 13.8 mph - N/A   Mist
6:26 PM 46.4 °F 40.7 °F 46.4 °F 100% 29.98 in 0.5 mi WSW 12.7 mph - N/A Fog Fog
6:43 PM 46.4 °F 40.4 °F 46.4 °F 100% 29.98 in 0.8 mi WSW 13.8 mph - N/A   Mist
6:53 PM 46.0 °F 39.9 °F 45.0 °F 96% 29.98 in 0.8 mi WSW 13.8 mph - N/A   Mist
7:03 PM 46.4 °F 40.4 °F 44.6 °F 93% 29.98 in 0.5 mi WSW 13.8 mph - N/A Fog Fog
7:39 PM 44.6 °F 38.8 °F 42.8 °F 93% 29.98 in 0.2 mi WSW 11.5 mph - N/A Fog Fog
7:53 PM 45.0 °F 40.6 °F 44.1 °F 97% 29.99 in 0.2 mi WSW 8.1 mph - N/A Fog Fog
8:53 PM 44.1 °F 37.7 °F 43.0 °F 96% 29.99 in 0.2 mi West 12.7 mph - 0.01 in Fog Fog
9:18 PM 42.8 °F 36.6 °F 42.8 °F 100% 29.98 in 0.5 mi WSW 11.5 mph - 0.01 in Fog , Rain Light Rain
9:24 PM 44.6 °F 38.4 °F 42.8 °F 93% 29.98 in 1.0 mi WSW 12.7 mph - 0.01 in Rain Light Rain
9:41 PM 44.6 °F 37.8 °F 42.8 °F 93% 29.99 in 0.8 mi WSW 15.0 mph - 0.01 in Rain Light Rain
9:50 PM 44.6 °F 38.1 °F 42.8 °F 93% 29.99 in 1.0 mi WSW 13.8 mph - 0.01 in Rain Light Rain
9:53 PM 43.0 °F 35.4 °F 43.0 °F 100% 29.99 in 1.2 mi WSW 16.1 mph - 0.01 in Rain Light Rain
10:28 PM 42.8 °F 36.6 °F 42.8 °F 100% 29.99 in 0.8 mi WSW 11.5 mph - 0.01 in   Mist
10:51 PM 42.8 °F 36.6 °F 41.0 °F 93% 29.99 in 0.5 mi WSW 11.5 mph - 0.01 in Fog Fog
10:53 PM 42.1 °F 35.7 °F 41.0 °F 96% 30.00 in 0.5 mi WSW 11.5 mph - 0.01 in Fog Fog
11:53 PM 41.0 °F 34.7 °F 39.9 °F 96% 30.00 in 0.5 mi West 10.4 mph - N/A Fog Fog